2023-006B (55243 NORAD) Tracking and Keplerian Element Data

This shows tracking and keplerian element data for the satellite.

Feedback or suggestion? Click here.




ElementValue
Catalog55243
Name2023-006B
Epoch Orbit15
Epoch Day14.29549428
Epoch Year2023
RAAN200.7553
Inclination43.2007
Eccentricity0.0009594
Argument of Perigee283.6427
Mean Anonmoly252.8447
Mean Motion15.16730799
Decay Rate-0.00011591
L11 55243U 23006B 23014.29549428 -.00011591 00000+0 -56863-3 0 9992
L22 55243 43.2007 200.7553 0009594 283.6427 252.8447 15.16730799 154



Live tracking and technical data element details for 2023-006B (NORAD 55243). 2023-006B can be tracked NOW for your location showing map with azimuth and elevation plus other details from your city location.







IsCatalogInMostPopularTable: catalog: 55243, numindb: 4
Update: records affected: 1



GetName: 55243 2023-006B

Hit Count: updated at: Tue, 07 Feb 2023 15:40:25 GMT